Glover Park, Texas, United States
Lat: 32.76N, Lon: 96.71W
Wx Zone: TXZ119
Local Info
Past Weather Observations for Today

NOTE: This archive is for the closest National Weather Service station to Glover Park. Information may differ from the station used for current weather conditions.

Click here for Long-term Archive

Time Weather Temperature Dewpoint Humidity Pressure Winds Precip Visibility
10:50
Overcast
Fog And Mist
81°F / 27°C 75°F / 24°C 84% 29.71 in
(1006 mb)
SE 13.8 mph
(SE 22 kph)
- 4SM
08:50
Overcast
Fog And Mist
75°F / 24°C 73°F / 23°C 94% 29.74 in
(1007 mb)
SE 4.6 mph
(SE 7 kph)
- 4SM
07:50
Overcast
Fog And Mist
73°F / 23°C 73°F / 23°C 100% 29.71 in
(1006 mb)
SE 6.9 mph
(SE 11 kph)
- 4SM
06:50
Overcast
Fog And Mist
73°F / 23°C 72°F / 22°C 94% 29.71 in
(1006 mb)
S 5.8 mph
(S 9 kph)
- 4SM
05:50
Overcast
Fog And Mist
72°F / 22°C 72°F / 22°C 100% 29.71 in
(1006 mb)
SSE 8.1 mph
(SSE 13 kph)
- 4SM
05:15
Mostly Cloudy
72°F / 22°C 72°F / 22°C 100% 29.71 in
(1006 mb)
S 5.8 mph
(S 9 kph)
- 4SM
04:55
Overcast
72°F / 22°C 72°F / 22°C 100% 29.68 in
(1005 mb)
S 8.1 mph
(S 13 kph)
- 5SM
04:35
Overcast
72°F / 22°C 70°F / 21°C 94% 29.68 in
(1005 mb)
SSE 9.2 mph
(SSE 15 kph)
- 5SM
04:15
Overcast
70°F / 21°C 70°F / 21°C 100% 29.71 in
(1006 mb)
SE 4.6 mph
(SE 7 kph)
- 7SM
03:55
Overcast
70°F / 21°C 68°F / 20°C 94% 29.71 in
(1006 mb)
Calm - 7SM
03:35
Overcast
70°F / 21°C 68°F / 20°C 94% 29.71 in
(1006 mb)
Calm - 5SM
03:15
Overcast
70°F / 21°C 68°F / 20°C 94% 29.71 in
(1006 mb)
Calm - 10SM
02:55
Overcast
70°F / 21°C 66°F / 19°C 88% 29.74 in
(1007 mb)
SE 3.5 mph
(SE 6 kph)
- 10SM
02:35
Overcast
70°F / 21°C 68°F / 20°C 94% 29.74 in
(1007 mb)
Calm - 10SM
02:15
Overcast
70°F / 21°C 66°F / 19°C 88% 29.74 in
(1007 mb)
Calm - 10SM
01:55
Overcast
70°F / 21°C 66°F / 19°C 88% 29.74 in
(1007 mb)
S 3.5 mph
(S 6 kph)
- 10SM
01:35
Overcast
70°F / 21°C 64°F / 18°C 83% 29.77 in
(1008 mb)
Calm - 10SM
01:15
Overcast
68°F / 20°C 64°F / 18°C 88% 29.74 in
(1007 mb)
E 3.5 mph
(E 6 kph)
- 10SM
00:55
Overcast
68°F / 20°C 64°F / 18°C 88% 29.77 in
(1008 mb)
E 3.5 mph
(E 6 kph)
- 10SM
00:35
Overcast
68°F / 20°C 64°F / 18°C 88% 29.77 in
(1008 mb)
ESE 3.5 mph
(ESE 6 kph)
- 10SM
00:15
Mostly Cloudy
68°F / 20°C 64°F / 18°C 88% 29.77 in
(1008 mb)
E 6.9 mph
(E 11 kph)
- 10SM
Time Weather Temperature Dewpoint Humidity Pressure Winds Precip Visibility


Weather for websites

WeatherForYou.com, LLC is not responsible for any damages or problems caused by this service. Current weather conditions are obtained from the closest station including government and personal stations which may have varying degrees of accuracy. Weather forecasts are derived from the NOAA NDFD. Like all things, this site belongs to Jesus Christ... He just trusts us to maintain it. If you have any questions or comments email webmaster@weatherforyou.com

Copyright © 2016, WeatherForYou.com LLC. All rights reserved.